Time,TemperatureF,DewpointF,PressureIn,WindDirection,WindDirectionDegrees,WindSpeedMPH,WindSpeedGustMPH,Humidity,HourlyPrecipIn,Conditions,Clouds,dailyrainin,SoftwareType,DateUTC
2013-03-26 00:00:00,33.7,21.2,30.17,NNW,338,5.8,5.8,60,0.00,,,0.00,WUHU216HW,2013-03-26 05:00:00,
2013-03-26 00:05:00,33.7,21.2,30.17,NNW,338,5.8,5.8,60,0.00,,,0.00,WUHU216HW,2013-03-26 05:05:00,
2013-03-26 00:30:00,33.7,20.8,30.17,West,270,6.7,6.7,59,0.00,,,0.00,WUHU216HW,2013-03-26 05:30:00,
2013-03-26 00:35:00,33.7,20.8,30.17,West,270,6.7,6.7,59,0.00,,,0.00,WUHU216HW,2013-03-26 05:35:00,
2013-03-26 01:00:00,33.3,21.0,30.18,NNW,338,6.3,6.3,60,0.00,,,0.00,WUHU216HW,2013-03-26 06:00:00,
2013-03-26 01:05:00,33.3,21.0,30.18,NNW,338,6.3,6.3,60,0.00,,,0.00,WUHU216HW,2013-03-26 06:05:00,
2013-03-26 01:06:00,33.3,21.0,30.18,NNW,338,6.3,6.3,60,0.00,,,0.00,WUHU216HW,2013-03-26 06:06:00,
2013-03-26 01:30:00,32.8,20.8,30.18,NW,315,1.6,1.6,61,0.00,,,0.00,WUHU216HW,2013-03-26 06:30:00,
2013-03-26 01:35:00,32.8,20.8,30.18,NW,315,2.5,2.5,61,0.00,,,0.00,WUHU216HW,2013-03-26 06:35:00,
2013-03-26 01:40:00,32.8,20.8,30.18,NW,315,2.5,2.5,61,0.00,,,0.00,WUHU216HW,2013-03-26 06:40:00,
2013-03-26 02:00:00,32.2,20.7,30.18,WNW,293,5.4,5.4,62,0.00,,,0.00,WUHU216HW,2013-03-26 07:00:00,
2013-03-26 02:05:00,32.2,20.7,30.18,WNW,293,5.4,5.4,62,0.00,,,0.00,WUHU216HW,2013-03-26 07:05:00,
2013-03-26 02:30:00,32.0,19.8,30.18,NW,315,4.0,4.0,60,0.00,,,0.00,WUHU216HW,2013-03-26 07:30:00,
2013-03-26 02:35:00,32.0,19.8,30.18,NW,315,4.0,4.0,60,0.00,,,0.00,WUHU216HW,2013-03-26 07:35:00,
2013-03-26 02:36:00,32.0,19.8,30.18,NW,315,4.0,4.0,60,0.00,,,0.00,WUHU216HW,2013-03-26 07:36:00,
2013-03-26 03:00:00,31.7,19.8,30.18,NW,315,7.8,7.8,61,0.00,,,0.00,WUHU216HW,2013-03-26 08:00:00,
2013-03-26 03:05:00,31.7,19.8,30.18,NW,315,7.8,7.8,61,0.00,,,0.00,WUHU216HW,2013-03-26 08:05:00,
2013-03-26 03:30:00,31.3,19.4,30.18,NW,315,5.6,5.6,61,0.00,,,0.00,WUHU216HW,2013-03-26 08:30:00,
2013-03-26 03:32:00,31.3,19.4,30.18,NW,315,6.0,6.0,61,0.00,,,0.00,WUHU216HW,2013-03-26 08:32:00,
2013-03-26 03:35:00,31.3,19.4,30.18,NW,315,6.0,6.0,61,0.00,,,0.00,WUHU216HW,2013-03-26 08:35:00,
2013-03-26 03:36:00,31.3,19.4,30.18,NW,315,6.0,6.0,61,0.00,,,0.00,WUHU216HW,2013-03-26 08:36:00,
2013-03-26 03:37:00,31.3,19.4,30.18,NW,315,6.0,6.0,61,0.00,,,0.00,WUHU216HW,2013-03-26 08:37:00,
2013-03-26 03:40:00,31.3,19.4,30.18,NW,315,6.0,6.0,61,0.00,,,0.00,WUHU216HW,2013-03-26 08:40:00,
2013-03-26 04:00:00,31.1,19.3,30.19,NNW,338,3.1,3.1,61,0.00,,,0.00,WUHU216HW,2013-03-26 09:00:00,
2013-03-26 04:01:00,31.1,19.3,30.19,NNW,338,3.1,3.1,61,0.00,,,0.00,WUHU216HW,2013-03-26 09:01:00,
2013-03-26 04:05:00,31.1,19.3,30.19,NNW,338,3.1,3.1,61,0.00,,,0.00,WUHU216HW,2013-03-26 09:05:00,
2013-03-26 04:06:00,31.1,19.3,30.19,NNW,338,3.1,3.1,61,0.00,,,0.00,WUHU216HW,2013-03-26 09:06:00,
2013-03-26 04:30:00,31.0,19.4,30.18,NNW,338,6.3,6.3,62,0.00,,,0.00,WUHU216HW,2013-03-26 09:30:00,
2013-03-26 04:35:00,31.0,19.4,30.18,NNW,338,6.3,6.3,62,0.00,,,0.00,WUHU216HW,2013-03-26 09:35:00,
2013-03-26 04:36:00,31.0,19.4,30.18,NNW,338,6.3,6.3,62,0.00,,,0.00,WUHU216HW,2013-03-26 09:36:00,
2013-03-26 05:00:00,30.6,19.1,30.19,NW,315,5.4,5.4,62,0.00,,,0.00,WUHU216HW,2013-03-26 10:00:00,
2013-03-26 05:05:00,30.6,19.1,30.19,NW,315,5.4,5.4,62,0.00,,,0.00,WUHU216HW,2013-03-26 10:05:00,
2013-03-26 05:30:00,30.6,19.4,30.19,NNW,338,2.2,2.2,63,0.00,,,0.00,WUHU216HW,2013-03-26 10:30:00,
2013-03-26 05:35:00,30.6,19.4,30.19,NNW,338,2.2,2.2,63,0.00,,,0.00,WUHU216HW,2013-03-26 10:35:00,
2013-03-26 06:00:00,30.2,19.8,30.20,North,0,1.8,1.8,65,0.00,,,0.00,WUHU216HW,2013-03-26 11:00:00,
2013-03-26 06:05:00,30.2,19.8,30.20,North,0,1.8,1.8,65,0.00,,,0.00,WUHU216HW,2013-03-26 11:05:00,
2013-03-26 06:30:00,29.9,19.8,30.20,NW,315,4.7,4.7,66,0.00,,,0.00,WUHU216HW,2013-03-26 11:30:00,
2013-03-26 06:35:00,29.9,19.8,30.20,NW,315,4.7,4.7,66,0.00,,,0.00,WUHU216HW,2013-03-26 11:35:00,
2013-03-26 07:00:00,29.7,19.7,30.21,NW,315,3.8,3.8,66,0.00,,,0.00,WUHU216HW,2013-03-26 12:00:00,
2013-03-26 07:05:00,29.5,19.9,30.21,WNW,293,4.0,4.0,67,0.00,,,0.00,WUHU216HW,2013-03-26 12:05:00,
2013-03-26 07:10:00,29.5,19.9,30.21,WNW,293,4.0,4.0,67,0.00,,,0.00,WUHU216HW,2013-03-26 12:10:00,
2013-03-26 07:30:00,29.7,20.1,30.22,NW,315,4.5,4.5,67,0.00,,,0.00,WUHU216HW,2013-03-26 12:30:00,
2013-03-26 07:35:00,29.7,20.1,30.22,NW,315,4.5,4.5,67,0.00,,,0.00,WUHU216HW,2013-03-26 12:35:00,
2013-03-26 08:00:00,29.7,20.4,30.22,NW,315,2.0,2.0,68,0.00,,,0.00,WUHU216HW,2013-03-26 13:00:00,
2013-03-26 08:05:00,29.9,20.5,30.22,NNW,338,2.5,2.5,68,0.00,,,0.00,WUHU216HW,2013-03-26 13:05:00,
2013-03-26 08:10:00,29.9,20.5,30.22,NNW,338,2.5,2.5,68,0.00,,,0.00,WUHU216HW,2013-03-26 13:10:00,
2013-03-26 08:30:00,30.1,20.3,30.23,NNW,338,4.0,4.0,67,0.00,,,0.00,WUHU216HW,2013-03-26 13:30:00,
2013-03-26 08:35:00,30.1,20.3,30.23,WNW,293,2.9,4.5,67,0.00,,,0.00,WUHU216HW,2013-03-26 13:35:00,
2013-03-26 08:40:00,30.1,20.3,30.23,WNW,293,2.9,4.5,67,0.00,,,0.00,WUHU216HW,2013-03-26 13:40:00,
2013-03-26 09:00:00,30.6,20.5,30.23,NW,315,4.9,4.9,66,0.00,,,0.00,WUHU216HW,2013-03-26 14:00:00,
2013-03-26 09:05:00,30.6,20.5,30.23,NW,315,4.9,4.9,66,0.00,,,0.00,WUHU216HW,2013-03-26 14:05:00,
2013-03-26 09:30:00,31.3,20.9,30.24,NNW,338,2.9,2.9,65,0.00,,,0.00,WUHU216HW,2013-03-26 14:30:00,
2013-03-26 09:35:00,31.3,20.9,30.24,NNW,338,2.0,2.9,65,0.00,,,0.00,WUHU216HW,2013-03-26 14:35:00,
2013-03-26 10:00:00,32.6,21.3,30.24,NW,315,2.7,2.7,63,0.00,,,0.00,WUHU216HW,2013-03-26 15:00:00,
2013-03-26 10:05:00,32.6,21.3,30.24,NW,315,2.7,2.7,63,0.00,,,0.00,WUHU216HW,2013-03-26 15:05:00,
2013-03-26 10:30:00,34.2,22.5,30.24,North,0,1.6,1.6,62,0.00,,,0.00,WUHU216HW,2013-03-26 15:30:00,
2013-03-26 10:35:00,34.4,22.0,30.24,NNW,338,3.4,4.7,60,0.00,,,0.00,WUHU216HW,2013-03-26 15:35:00,
2013-03-26 10:40:00,34.4,22.0,30.24,NNW,338,3.4,4.7,60,0.00,,,0.00,WUHU216HW,2013-03-26 15:40:00,
2013-03-26 11:00:00,35.8,23.4,30.24,NNW,338,3.8,3.8,60,0.00,,,0.00,WUHU216HW,2013-03-26 16:00:00,
2013-03-26 11:05:00,35.8,23.4,30.24,NNW,338,3.8,3.8,60,0.00,,,0.00,WUHU216HW,2013-03-26 16:05:00,
2013-03-26 11:30:00,36.2,23.3,30.24,NE,45,3.4,3.4,59,0.00,,,0.00,WUHU216HW,2013-03-26 16:30:00,
2013-03-26 11:35:00,36.2,23.3,30.24,NE,45,3.4,3.4,59,0.00,,,0.00,WUHU216HW,2013-03-26 16:35:00,
2013-03-26 12:00:00,40.0,24.1,30.24,NNE,23,2.2,2.2,53,0.00,,,0.00,WUHU216HW,2013-03-26 17:00:00,
2013-03-26 12:05:00,40.0,23.7,30.24,NNE,23,3.4,3.4,52,0.00,,,0.00,WUHU216HW,2013-03-26 17:05:00,
2013-03-26 12:10:00,40.0,23.7,30.24,NNE,23,3.4,3.4,52,0.00,,,0.00,WUHU216HW,2013-03-26 17:10:00,
2013-03-26 12:30:00,45.5,24.8,30.24,NE,45,2.9,2.9,44,0.00,,,0.00,WUHU216HW,2013-03-26 17:30:00,
2013-03-26 12:35:00,45.0,24.3,30.23,NNE,23,2.7,2.9,44,0.00,,,0.00,WUHU216HW,2013-03-26 17:35:00,
2013-03-26 12:40:00,45.0,24.3,30.23,NNE,23,2.7,2.9,44,0.00,,,0.00,WUHU216HW,2013-03-26 17:40:00,
2013-03-26 13:00:00,42.3,21.2,30.23,NNW,338,5.4,5.4,43,0.00,,,0.00,WUHU216HW,2013-03-26 18:00:00,
2013-03-26 13:05:00,42.1,21.2,30.23,NNW,338,6.7,6.7,43,0.00,,,0.00,WUHU216HW,2013-03-26 18:05:00,
2013-03-26 13:10:00,42.1,21.2,30.23,NNW,338,6.7,6.7,43,0.00,,,0.00,WUHU216HW,2013-03-26 18:10:00,
2013-03-26 13:30:00,41.2,20.8,30.23,NNW,338,2.9,2.9,44,0.00,,,0.00,WUHU216HW,2013-03-26 18:30:00,
2013-03-26 13:35:00,41.2,20.8,30.23,NNW,338,2.9,2.9,44,0.00,,,0.00,WUHU216HW,2013-03-26 18:35:00,
2013-03-26 14:00:00,43.6,22.4,30.22,NW,315,0.2,0.2,43,0.00,,,0.00,WUHU216HW,2013-03-26 19:00:00,
2013-03-26 14:05:00,43.6,22.4,30.22,NW,315,0.2,0.2,43,0.00,,,0.00,WUHU216HW,2013-03-26 19:05:00,
2013-03-26 14:30:00,40.7,18.7,30.22,NNE,23,5.8,5.8,41,0.00,,,0.00,WUHU216HW,2013-03-26 19:30:00,
2013-03-26 14:35:00,40.7,18.7,30.22,NNE,23,5.8,5.8,41,0.00,,,0.00,WUHU216HW,2013-03-26 19:35:00,
2013-03-26 15:00:00,40.0,19.6,30.22,WNW,293,2.9,2.9,44,0.00,,,0.00,WUHU216HW,2013-03-26 20:00:00,
2013-03-26 15:05:00,40.0,19.6,30.22,WNW,293,2.9,2.9,44,0.00,,,0.00,WUHU216HW,2013-03-26 20:05:00,
2013-03-26 15:30:00,39.6,19.9,30.22,WNW,293,4.5,4.5,45,0.00,,,0.00,WUHU216HW,2013-03-26 20:30:00,
2013-03-26 15:35:00,39.6,19.9,30.22,WNW,293,4.5,4.5,45,0.00,,,0.00,WUHU216HW,2013-03-26 20:35:00,
2013-03-26 16:00:00,39.6,20.3,30.22,NNW,338,6.9,6.9,46,0.00,,,0.00,WUHU216HW,2013-03-26 21:00:00,
2013-03-26 16:05:00,39.6,20.3,30.22,NNW,338,6.9,6.9,46,0.00,,,0.00,WUHU216HW,2013-03-26 21:05:00,
2013-03-26 16:10:00,39.6,20.3,30.22,NNW,338,6.9,6.9,46,0.00,,,0.00,WUHU216HW,2013-03-26 21:10:00,
2013-03-26 16:30:00,39.2,20.1,30.21,NNW,338,2.0,2.0,46,0.00,,,0.00,WUHU216HW,2013-03-26 21:30:00,
2013-03-26 16:35:00,39.2,20.1,30.21,WNW,293,2.7,3.8,46,0.00,,,0.00,WUHU216HW,2013-03-26 21:35:00,
2013-03-26 16:40:00,39.2,20.1,30.21,WNW,293,2.7,3.8,46,0.00,,,0.00,WUHU216HW,2013-03-26 21:40:00,
2013-03-26 17:00:00,39.6,19.9,30.21,NW,315,4.7,4.7,45,0.00,,,0.00,WUHU216HW,2013-03-26 22:00:00,
2013-03-26 17:05:00,39.6,19.9,30.21,NW,315,4.7,4.7,45,0.00,,,0.00,WUHU216HW,2013-03-26 22:05:00,
2013-03-26 17:10:00,39.6,19.9,30.21,NW,315,4.7,4.7,45,0.00,,,0.00,WUHU216HW,2013-03-26 22:10:00,
2013-03-26 17:30:00,39.6,19.9,30.22,NW,315,3.8,3.8,45,0.00,,,0.00,WUHU216HW,2013-03-26 22:30:00,
2013-03-26 17:35:00,39.6,19.9,30.22,NW,315,3.8,3.8,45,0.00,,,0.00,WUHU216HW,2013-03-26 22:35:00,
2013-03-26 19:30:00,37.4,20.5,30.22,WNW,293,2.7,2.7,50,0.00,,,0.00,WUHU216HW,2013-03-27 00:30:00,
2013-03-26 19:35:00,37.4,20.5,30.22,WNW,293,2.7,2.7,50,0.00,,,0.00,WUHU216HW,2013-03-27 00:35:00,
2013-03-26 20:00:00,36.7,20.4,30.22,WSW,248,1.3,1.3,51,0.00,,,0.00,WUHU216HW,2013-03-27 01:00:00,
2013-03-26 20:05:00,36.5,20.2,30.22,WNW,293,1.8,2.2,51,0.00,,,0.00,WUHU216HW,2013-03-27 01:05:00,
2013-03-26 20:10:00,36.5,20.2,30.22,WNW,293,1.8,2.2,51,0.00,,,0.00,WUHU216HW,2013-03-27 01:10:00,
2013-03-26 20:31:00,36.2,19.8,30.22,WNW,293,1.8,1.8,51,0.00,,,0.00,WUHU216HW,2013-03-27 01:31:00,
2013-03-26 20:32:00,36.2,19.8,30.22,WNW,293,2.7,2.7,51,0.00,,,0.00,WUHU216HW,2013-03-27 01:32:00,
2013-03-26 20:37:00,36.2,19.8,30.22,West,270,2.0,3.1,51,0.00,,,0.00,WUHU216HW,2013-03-27 01:37:00,
2013-03-26 20:42:00,36.2,19.8,30.22,West,270,2.0,3.1,51,0.00,,,0.00,WUHU216HW,2013-03-27 01:42:00,
2013-03-26 20:43:00,36.2,19.8,30.22,West,270,2.0,3.1,51,0.00,,,0.00,WUHU216HW,2013-03-27 01:43:00,
2013-03-26 21:00:00,35.6,19.8,30.23,West,270,2.0,2.0,52,0.00,,,0.00,WUHU216HW,2013-03-27 02:00:00,
2013-03-26 21:05:00,35.6,19.8,30.23,West,270,2.0,2.0,52,0.00,,,0.00,WUHU216HW,2013-03-27 02:05:00,
2013-03-26 21:10:00,35.6,19.8,30.23,West,270,2.0,2.0,52,0.00,,,0.00,WUHU216HW,2013-03-27 02:10:00,
2013-03-26 21:30:00,34.9,19.4,30.23,West,270,2.5,2.5,53,0.00,,,0.00,WUHU216HW,2013-03-27 02:30:00,
2013-03-26 21:35:00,34.9,19.4,30.23,WSW,248,1.8,2.5,53,0.00,,,0.00,WUHU216HW,2013-03-27 02:35:00,
2013-03-26 21:40:00,34.9,19.4,30.23,WSW,248,1.8,1.8,53,0.00,,,0.00,WUHU216HW,2013-03-27 02:40:00,
2013-03-26 22:00:00,33.8,19.7,30.23,SW,225,0.9,0.9,56,0.00,,,0.00,WUHU216HW,2013-03-27 03:00:00,
2013-03-26 22:01:00,33.8,19.7,30.23,SW,225,0.9,0.9,56,0.00,,,0.00,WUHU216HW,2013-03-27 03:01:00,
2013-03-26 22:05:00,33.8,19.7,30.23,SW,225,0.9,0.9,56,0.00,,,0.00,WUHU216HW,2013-03-27 03:05:00,
2013-03-26 22:07:00,33.8,19.7,30.23,SW,225,0.9,0.9,56,0.00,,,0.00,WUHU216HW,2013-03-27 03:07:00,
2013-03-26 22:10:00,33.8,19.7,30.23,SW,225,0.9,0.9,56,0.00,,,0.00,WUHU216HW,2013-03-27 03:10:00,
2013-03-26 22:30:00,34.7,19.3,30.23,West,270,1.3,1.3,53,0.00,,,0.00,WUHU216HW,2013-03-27 03:30:00,
2013-03-26 22:35:00,34.7,19.3,30.24,SW,225,0.9,1.3,53,0.00,,,0.00,WUHU216HW,2013-03-27 03:35:00,
2013-03-26 22:40:00,34.7,19.3,30.24,SW,225,0.9,0.9,53,0.00,,,0.00,WUHU216HW,2013-03-27 03:40:00,
2013-03-26 23:00:00,34.2,20.1,30.24,WNW,293,0.7,0.7,56,0.00,,,0.00,WUHU216HW,2013-03-27 04:00:00,
2013-03-26 23:05:00,34.2,20.1,30.24,WNW,293,0.4,0.7,56,0.00,,,0.00,WUHU216HW,2013-03-27 04:05:00,
2013-03-26 23:10:00,34.2,20.1,30.24,WNW,293,0.4,0.4,56,0.00,,,0.00,WUHU216HW,2013-03-27 04:10:00,
2013-03-26 23:30:00,33.7,20.0,30.25,WSW,248,1.8,1.8,57,0.00,,,0.00,WUHU216HW,2013-03-27 04:30:00,
2013-03-26 23:35:00,33.7,20.0,30.25,SW,225,1.8,1.8,57,0.00,,,0.00,WUHU216HW,2013-03-27 04:35:00,
2013-03-26 23:36:00,33.7,20.0,30.25,SW,225,1.8,1.8,57,0.00,,,0.00,WUHU216HW,2013-03-27 04:36:00,
2013-03-26 23:40:00,33.7,20.0,30.25,SW,225,1.8,1.8,57,0.00,,,0.00,WUHU216HW,2013-03-27 04:40:00,